Monday, December 18, 2017, 11:35 AM EST

KIPT, Williamsport-lycoming County

Location: Montoursville, PA, United States Lat: 41.25
Local Time: 11:35 AM EST (16:35 GMT) Lon: -76.917
Time Zone: US/Eastern Elev: 528 ft

Show me the last for .
Show Decoded

2017-12-18 10:54 METAR KIPT 181554Z 00000KT 7SM FEW070 BKN095 04/M01 A3006 RMK AO2 SLP182
                 T00391011 =
2017-12-18 09:54 METAR KIPT 181454Z 27003KT 6SM HZ OVC065 03/M01 A3008 RMK AO2 SLP191 T00281011
                 55003 =
2017-12-18 08:54 METAR KIPT 181354Z 00000KT 7SM BKN065 02/M02 A3007 RMK AO2 SLP188 T00171017 =
2017-12-18 07:54 METAR KIPT 181254Z 00000KT 7SM OVC038 01/M02 A3008 RMK AO2 SLP189 T00111017 =
2017-12-18 06:54 METAR KIPT 181154Z 00000KT 9SM BKN031 BKN039 01/M02 A3009 RMK AO2 SLP194
                 T00111022 10028 20011 55002 =
2017-12-18 05:54 METAR KIPT 181054Z AUTO 04003KT 10SM BKN050 OVC075 03/M02 A3008 RMK AO2 SLP191
                 T00281022 =
2017-12-18 04:54 METAR KIPT 180954Z AUTO 00000KT 10SM OVC049 02/M02 A3008 RMK AO2 SLP192
                 T00221022 =
2017-12-18 04:04 METAR KIPT 180904Z AUTO 10004KT 10SM SCT023 OVC039 02/M02 A3009 RMK AO2
                 T00171022 =
2017-12-18 03:54 METAR KIPT 180854Z AUTO 13003KT 10SM BKN023 OVC037 02/M02 A3010 RMK AO2 SLP196
                 T00171022 58006 =
2017-12-18 02:54 METAR KIPT 180754Z AUTO 00000KT 9SM OVC022 02/M01 A3011 RMK AO2 SLP202 T00171011
                 =
2017-12-18 02:07 METAR KIPT 180707Z AUTO 00000KT 9SM BKN023 OVC038 02/M02 A3013 RMK AO2 T00171017
                 =
2017-12-18 01:54 METAR KIPT 180654Z AUTO 00000KT 9SM FEW025 OVC038 02/M02 A3012 RMK AO2 SLP206
                 T00221017 =
2017-12-18 00:54 METAR KIPT 180554Z AUTO 00000KT 10SM SCT037 OVC048 02/M02 A3012 RMK AO2 SLP203
                 T00221022 10028 20011 58011 =
2017-12-17 23:54 METAR KIPT 180454Z AUTO 00000KT 10SM OVC044 02/M02 A3013 RMK AO2 SLP208
                 T00171022 400330011 =
2017-12-17 22:54 METAR KIPT 180354Z AUTO 09004KT 10SM BKN090 OVC120 02/M02 A3014 RMK AO2 SLP213
                 T00171022 =
2017-12-17 21:54 METAR KIPT 180254Z 07003KT 10SM BKN110 02/M03 A3015 RMK AO2 SLP214 T00171028
                 58012 =
2017-12-17 20:54 METAR KIPT 180154Z 06005KT 10SM SCT120 02/M03 A3016 RMK AO2 SLP218 T00221028 =
2017-12-17 19:54 METAR KIPT 180054Z 00000KT 10SM CLR 02/M02 A3018 RMK AO2 SLP223 T00171022 =
2017-12-17 18:54 METAR KIPT 172354Z 00000KT 10SM FEW120 02/M02 A3019 RMK AO2 SLP227 T00171022
                 10033 20017 50005 =
2017-12-17 17:54 METAR KIPT 172254Z 00000KT 10SM CLR 02/M03 A3021 RMK AO2 SLP234 T00221028 =
2017-12-17 16:54 METAR KIPT 172154Z 08003KT 10SM CLR 03/M03 A3018 RMK AO2 SLP223 T00281028 =
2017-12-17 15:54 METAR KIPT 172054Z 08005KT 10SM CLR 03/M02 A3017 RMK AO2 SLP221 T00281022 58010
                 =
2017-12-17 14:54 METAR KIPT 171954Z 07005KT 10SM CLR 03/M02 A3018 RMK AO2 SLP225 T00331022 =
2017-12-17 13:54 METAR KIPT 171854Z 00000KT 10SM OVC200 03/M03 A3019 RMK AO2 SLP229 T00281028 =
2017-12-17 12:54 METAR KIPT 171754Z 00000KT 10SM OVC200 03/M03 A3020 RMK AO2 SLP232 T00281028
                 10033 20011 58018 =
2017-12-17 11:54 METAR KIPT 171654Z 00000KT 10SM OVC200 03/M03 A3023 RMK AO2 SLP243 T00281028 =

Support USWX by starting your Amazon purchase here.